Location: Auckland
(36.8670°S, 174.7670°E)
Time: 02:06:18
(UTC+12:00)

Courier 1B Rocket - Pass Details

Date: 19 July 2019
Orbit: 920 x 1202 km, 28.3° (Epoch: 22 August)

Event Time Altitude Azimuth Distance (km) Brightness Sun altitude
Rises 04:17:05 0° 322° (NW) 4,068 - -38.1°
Reaches altitude 10° 04:20:43 10° 337° (NNW) 3,082 - -37.3°
Exits shadow 04:24:53 20° 9° (N) 2,357 7.0 -36.5°
Maximum altitude 04:26:11 21° 23° (NNE) 2,295 7.1 -36.2°
Drops below altitude 10° 04:31:27 10° 69° (ENE) 2,964 8.2 -35.2°
Sets 04:34:51 0° 84° (E) 3,872 9.2 -34.5°
